Bierset, Belgium

2:07 PM CEST on July 28, 2017 (GMT +0200)
Liege

Weather History for EBLG - December, 2012

Change the Weather History Date:

Friday, December 14, 2012

  Actual Average Record
Temperature  
Mean Temperature 41 °F -  
Max Temperature 50 °F 40 °F 51 °F (1998)
Min Temperature 32 °F 33 °F 19 °F (2001)
Degree Days  
Heating Degree Days 24    
Moisture  
Dew Point 39 °F    
Average Humidity 87    
Maximum Humidity 93    
Minimum Humidity 76    
Precipitation  
Precipitation 0.08 in - - ()
Sea Level Pressure  
Sea Level Pressure 29.42 in    
Wind  
Wind Speed 12 mph ()    
Max Wind Speed 23 mph    
Max Gust Speed 34 mph    
Visibility 6.3 miles    
Events Rain    
Averages and records for this station are not official NWS values.
T = Trace of Precipitation, MM = Missing Value Source: Averaged Metar Reports

Daily Weather History Graph

Daily Weather History Graph

Search for Another Location

Airport or City:

Trip Planner

Search our weather history database for the weather conditions in past years. The results will help you decide how hot, cold, wet, or windy it might be!

Date:

Astronomy

Dec. 14, 2012 Rise Set
Actual Time 8:32 AM CET 4:33 PM CET
Civil Twilight 7:53 AM CET 5:12 PM CET
Nautical Twilight 7:11 AM CET 5:54 PM CET
Astronomical Twilight 6:31 AM CET 6:34 PM CET
Moon 9:18 AM CET (12/14) 6:13 PM CET (12/14)
Length of Visible Light 9h 19m
Length of Day
8h 00m
New Moon, 2% of the Moon is Illuminated
Dec 14
New Moon
Dec 20
First Quarter
Dec 28
Full
Jan 5
Last Quarter
Jan 11
New

Hourly Weather History & Observations

Time (CET) Temp. Windchill Dew Point Humidity Pressure Visibility Wind Dir Wind Speed Gust Speed Precip Events Conditions
12:20 AM 37.4 °F 30.8 °F 33.8 °F 87% 29.68 in 6.2 mi SSE 9.2 mph - N/A   Mostly Cloudy
12:50 AM 37.4 °F 30.8 °F 33.8 °F 87% 29.65 in 5.6 mi South 9.2 mph 20.7 mph N/A   Mostly Cloudy
1:20 AM 37.4 °F 30.8 °F 33.8 °F 87% 29.65 in 5.6 mi SSE 9.2 mph - N/A   Mostly Cloudy
1:50 AM 37.4 °F 30.8 °F 33.8 °F 87% 29.65 in 5.6 mi SSE 9.2 mph - N/A   Mostly Cloudy
2:20 AM 37.4 °F 30.3 °F 35.6 °F 93% 29.65 in 5.6 mi South 10.4 mph - N/A   Mostly Cloudy
2:50 AM 37.4 °F 31.4 °F 35.6 °F 93% 29.65 in 6.2 mi South 8.1 mph - N/A   Mostly Cloudy
3:20 AM 37.4 °F 30.3 °F 35.6 °F 93% 29.62 in 6.2 mi SSE 10.4 mph - N/A   Mostly Cloudy
3:50 AM 37.4 °F 29.8 °F 35.6 °F 93% 29.62 in 6.2 mi South 11.5 mph - N/A   Mostly Cloudy
4:00 AM 38 °F - 36 °F 87% 29.66 in 6 mi South 11.2 mph - -   Mostly Cloudy
4:20 AM 39.2 °F 33.0 °F 35.6 °F 87% 29.62 in 6.2 mi SSE 9.2 mph - N/A   Mostly Cloudy
4:50 AM 39.2 °F 33.6 °F 35.6 °F 87% 29.62 in 6.2 mi South 8.1 mph - N/A   Mostly Cloudy
5:20 AM 39.2 °F 32.5 °F 35.6 °F 87% 29.62 in 6.2 mi South 10.4 mph - N/A   Mostly Cloudy
5:50 AM 39.2 °F 33.0 °F 35.6 °F 87% 29.62 in 6.2 mi SSE 9.2 mph - N/A   Scattered Clouds
6:20 AM 37.4 °F 31.4 °F 35.6 °F 93% 29.59 in 6.2 mi SSE 8.1 mph - N/A   Mostly Cloudy
6:50 AM 39.2 °F 33.0 °F 35.6 °F 87% 29.59 in 6.2 mi SE 9.2 mph - N/A   Mostly Cloudy
7:00 AM 38 °F - 36 °F 88% 29.62 in 7 mi SE 8.9 mph - -   Mostly Cloudy
7:20 AM 37.4 °F 30.8 °F 35.6 °F 93% 29.56 in 6.2 mi SE 9.2 mph - N/A   Scattered Clouds
7:50 AM 37.4 °F 32.1 °F 35.6 °F 93% 29.56 in 6.2 mi SE 6.9 mph - N/A   Scattered Clouds
8:20 AM 37.4 °F 29.8 °F 33.8 °F 87% 29.53 in 6.2 mi SE 11.5 mph - N/A   Scattered Clouds
8:50 AM 37.4 °F 30.3 °F 35.6 °F 93% 29.53 in 6.2 mi SSE 10.4 mph - N/A   Scattered Clouds
9:20 AM 37.4 °F 30.3 °F 35.6 °F 93% 29.53 in 6.2 mi SSE 10.4 mph - N/A   Scattered Clouds
9:50 AM 39.2 °F 31.2 °F 35.6 °F 87% 29.50 in 6.2 mi SSE 13.8 mph - N/A   Scattered Clouds
10:00 AM 39 °F - 35 °F 82% 29.54 in 8 mi SSE 13.4 mph - -   Partly Cloudy
10:20 AM 39.2 °F 30.8 °F 35.6 °F 87% 29.50 in 6.2 mi SSE 15.0 mph - N/A   Partly Cloudy
10:50 AM 41.0 °F 33.5 °F 35.6 °F 81% 29.47 in 6.2 mi SSE 13.8 mph - N/A   Partly Cloudy
11:20 AM 41.0 °F 32.2 °F 35.6 °F 81% 29.47 in 6.2 mi SSE 18.4 mph - N/A   Scattered Clouds
11:50 AM 41.0 °F 32.2 °F 37.4 °F 87% 29.44 in 6.2 mi SSE 18.4 mph - N/A   Scattered Clouds
12:20 PM 41.0 °F 32.8 °F 37.4 °F 87% 29.42 in 6.2 mi SSE 16.1 mph - N/A   Scattered Clouds
12:50 PM 42.8 °F 37.0 °F 37.4 °F 81% 29.39 in 6.2 mi SSE 10.4 mph - N/A   Scattered Clouds
1:00 PM 42 °F - 37 °F 78% 29.42 in 16 mi SSE 11.2 mph - -   Partly Cloudy
1:20 PM 42.8 °F 35.4 °F 37.4 °F 81% 29.39 in 6.2 mi SSE 15.0 mph - N/A   Scattered Clouds
1:50 PM 44.6 °F 36.9 °F 37.4 °F 76% 29.36 in 6.2 mi SSE 18.4 mph - N/A   Scattered Clouds
2:20 PM 44.6 °F 37.2 °F 39.2 °F 81% 29.33 in 6.2 mi South 17.3 mph 31.1 mph N/A Rain Light Rain
2:50 PM 44.6 °F 36.6 °F 39.2 °F 81% 29.30 in 6.2 mi South 19.6 mph 31.1 mph N/A Rain Light Rain
3:20 PM 44.6 °F 37.2 °F 41.0 °F 87% 29.30 in 5.6 mi South 17.3 mph - N/A Rain Light Rain
3:50 PM 44.6 °F 36.1 °F 41.0 °F 87% 29.27 in 6.2 mi South 21.9 mph - N/A Rain Light Rain
4:00 PM 45 °F - 41 °F 82% 29.29 in 6 mi South 22.4 mph - - Rain Light Rain
4:20 PM 44.6 °F 36.4 °F 41.0 °F 87% 29.24 in 6.2 mi South 20.7 mph 34.5 mph N/A Rain Light Rain
4:50 PM 44.6 °F 36.4 °F 42.8 °F 93% 29.24 in 3.7 mi South 20.7 mph - N/A Rain Light Rain
5:20 PM 46.4 °F 38.5 °F 42.8 °F 87% 29.21 in 6.2 mi South 21.9 mph 34.5 mph N/A Rain Light Rain
5:50 PM 46.4 °F 39.0 °F 42.8 °F 87% 29.21 in 6.2 mi South 19.6 mph - N/A Rain Light Rain
6:20 PM 46.4 °F 39.8 °F 42.8 °F 87% 29.21 in 6.2 mi South 16.1 mph - N/A Rain Light Rain
6:50 PM 46.4 °F 39.2 °F 44.6 °F 93% 29.21 in 6.2 mi South 18.4 mph - N/A Rain Light Rain
7:00 PM 47 °F - 44 °F 86% 29.22 in 8 mi South 17.9 mph - -   Mostly Cloudy
7:20 PM 48.2 °F - 44.6 °F 87% 29.18 in 6.2 mi South 18.4 mph - N/A   Mostly Cloudy
7:50 PM 48.2 °F - 46.4 °F 93% 29.21 in 6.2 mi South 18.4 mph - N/A Rain Light Rain Showers
8:20 PM 48.2 °F - 46.4 °F 93% 29.21 in 6.2 mi SSW 18.4 mph - N/A Rain Light Rain Showers
8:50 PM 48.2 °F - 46.4 °F 93% 29.21 in 6.2 mi SSW 17.3 mph - N/A Rain Light Rain Showers
9:20 PM 48.2 °F - 46.4 °F 93% 29.21 in 6.2 mi SSW 17.3 mph - N/A   Mostly Cloudy
9:50 PM 50.0 °F - 46.4 °F 87% 29.24 in 6.2 mi SSW 18.4 mph - N/A   Mostly Cloudy
10:00 PM 49 °F - 46 °F 83% 29.25 in 25 mi SSW 17.9 mph - - Rain Light Rain Showers
10:20 PM 48.2 °F - 44.6 °F 87% 29.24 in 6.2 mi SSW 20.7 mph - N/A Rain Light Rain Showers
10:50 PM 46.4 °F 38.3 °F 44.6 °F 93% 29.27 in 3.7 mi SW 23.0 mph - N/A Rain Light Rain Showers
11:20 PM 48.2 °F - 44.6 °F 87% 29.27 in 6.2 mi SSW 20.7 mph - N/A   Partly Cloudy
11:50 PM 48.2 °F - 42.8 °F 82% 29.27 in 6.2 mi SSW 21.9 mph - N/A   Partly Cloudy